SL-12 DEB, 52655

Orbit data source: Space-Track

SL-12 DEB, 52655 is space debris in HEO originally from a launch on Tue, 25 Dec 2007 UTC launched from the Tyuratam Missile And Space Complex (TTMTR). Debris objects in space refer to the collection of defunct objects orbiting the Earth. Examples of debris include non-operational satellites, rocket bodies, and fragments generated from explosions, collisions, or faulty payload assembly.

Loading next visibility...
Identifier
52655, 2007-065M
Orbit
HEO
Country
Flag of CISCIS
Related business
Manufacturer
RKKE
Mission
Spacecraft
Bus & Motor
SOZ, Unknown motor
Mass
Unknown
Launch date (UTC)
2007-12-25 (18 years ago)
Launch vehicle
Unknown
Launch site
Tyuratam Missile And Space Complex (TTMTR)
Object type
Payload
Rocket body
Debris
Shape & HBR
Unknown shape, 0.7 m
Radar Cross Section
0.613 m², Medium (>0.1 m² and < 1m²)

Expand to show TLE details & history
Last TLE update: 6 days ago

TLE from 6 days ago
0 SL-12 DEB
1 52655U 07065M   26167.33664663 -.00000351  00000-0 -30606-2 0  9998
2 52655  64.8711  97.7948 5537169 285.6844  22.1351  4.36173796 65651
Epoch: 2026-06-16T08:04Z
TLE epoch observation values (Epoch: 2026-06-16T08:04:46.268Z)
Latitude
0.00013°
Longitude
71.99018°
Altitude
3,178.584 km
Speed
7.632 km/s
True Right ascension
06h 31m 10s
True Declination
0° 00' 00"
Sunlit
Object was in daylight at epoch
Visualization orbit readout
Latitude
Unknown
Longitude
Unknown
Altitude
Unknown
Speed
Unknown
Apparent Right ascension
Unknown
Apparent Declination
Unknown
Sunlit
N/A
Visualization observer readout
Local Sidereal Time
23:08:18
Azimuth
Unknown
Elevation
Unknown
Doppler factor
Unknown
Orbital elements
Apogee altitude
18,204.997 km
Perigee altitude
683.019 km
Semi-major axis
15,822.145 km
Eccentricity
0.55372
Inclination
64.8711°
RAAN
97.7948°
Arg. of periapsis
285.6844°
True anomaly
74.42028°
Mean anomaly
22.1351°
Eccentric anomaly
44.28803°
Mean motion
1.09055 °/min
Orbital period
330.11 mins
BSTAR
-0.0030606
Loading maneuver chart data...
Computing Atmospheric mass density...
Loading historical data...
Loading historical data...
Loading historical data...
Loading historical data...
Loading historical data...
Loading historical data...
Loading historical data...

Documentation

Showing up to 5 results
|